| time (UTC) | temp F | wind direction | speed MPH | gust MPH | rain 1hr in | rain 24hr in | rain mn in | humidity % | barometer mb |
| 20260506133603 | 63 | 192 | 3.0 | 13.0 | 0.00 | 0.00 | 0.00 | 82 | 1009.3 |
| 20260506132954 | 63 | 90 | 0.0 | 7.0 | 0.00 | 0.00 | 0.00 | 82 | 1008.0 |
| 20260506132918 | 62 | 191 | 3.0 | 10.0 | 0.00 | 0.00 | 0.00 | 82 | 1009.3 |
| 20260506131803 | 62 | 182 | 2.0 | 13.0 | 0.00 | 0.00 | 0.00 | 82 | 1009.3 |
| 20260506131450 | 62 | 74 | 0.0 | 6.0 | 0.00 | 0.00 | 0.00 | 83 | 1007.8 |
| 20260506130903 | 62 | 198 | 3.0 | 9.0 | 0.00 | 0.00 | 0.00 | 83 | 1008.9 |
| 20260506130004 | 62 | 195 | 3.0 | 12.0 | 0.00 | 0.00 | 0.00 | 83 | 1009.6 |
| 20260506125948 | 62 | 228 | 2.0 | 9.0 | 0.00 | 0.00 | 0.00 | 83 | 1008.0 |
| 20260506125403 | 61 | 201 | 3.0 | 12.0 | 0.00 | 0.00 | 0.00 | 83 | 1009.3 |
| 20260506124503 | 61 | 192 | 2.0 | 8.0 | 0.00 | 0.00 | 0.00 | 83 | 1009.6 |
| 20260506124447 | 62 | 252 | 0.0 | 4.0 | 0.00 | 0.00 | 0.00 | 83 | 1008.4 |
| 20260506123603 | 61 | 166 | 2.0 | 16.0 | 0.00 | 0.00 | 0.00 | 83 | 1009.3 |
| 20260506122946 | 62 | 190 | 0.0 | 9.0 | 0.00 | 0.00 | 0.00 | 83 | 1008.0 |
| 20260506122703 | 61 | 192 | 3.0 | 16.0 | 0.00 | 0.00 | 0.00 | 83 | 1009.6 |
| 20260506121803 | 61 | 215 | 3.0 | 8.0 | 0.00 | 0.00 | 0.00 | 83 | 1010.0 |
| 20260506121443 | 62 | 82 | 3.0 | 5.0 | 0.00 | 0.00 | 0.00 | 84 | 1008.5 |
| 20260506121118 | 61 | 197 | 2.0 | 16.0 | 0.00 | 0.00 | 0.00 | 83 | 1010.0 |
| 20260506120004 | 61 | 188 | 2.0 | 9.0 | 0.00 | 0.00 | 0.00 | 83 | 1010.0 |
| 20260506115941 | 62 | 213 | 3.0 | 8.0 | 0.00 | 0.00 | 0.00 | 83 | 1008.5 |
| 20260506115403 | 61 | 178 | 3.0 | 9.0 | 0.00 | 0.00 | 0.00 | 83 | 1009.6 |
| 20260506114718 | 61 | 185 | 2.0 | 8.0 | 0.00 | 0.00 | 0.00 | 84 | 1009.6 |
| 20260506114440 | 61 | 156 | 5.0 | 7.0 | 0.00 | 0.00 | 0.00 | 84 | 1008.4 |
| 20260506113603 | 60 | 143 | 1.0 | 5.0 | 0.00 | 0.01 | 0.00 | 84 | 1009.6 |
| 20260506112937 | 60 | 114 | 0.0 | 4.0 | 0.00 | 0.00 | 0.00 | 85 | 1008.2 |
| 20260506112917 | 60 | 170 | 1.0 | 6.0 | 0.00 | 0.01 | 0.00 | 85 | 1009.6 |
| 20260506112016 | 60 | 142 | 1.0 | 6.0 | 0.00 | 0.01 | 0.00 | 85 | 1009.6 |
| 20260506111436 | 60 | 198 | 0.0 | 3.0 | 0.00 | 0.00 | 0.00 | 85 | 1008.4 |
| 20260506110903 | 60 | 187 | 2.0 | 7.0 | 0.00 | 0.01 | 0.00 | 85 | 1009.6 |
| 20260506110217 | 60 | 185 | 2.0 | 7.0 | 0.00 | 0.01 | 0.00 | 85 | 1009.6 |
| 20260506105933 | 60 | 230 | 2.0 | 7.0 | 0.00 | 0.00 | 0.00 | 85 | 1008.2 |
| 20260506105403 | 59 | 157 | 1.0 | 6.0 | 0.00 | 0.01 | 0.00 | 86 | 1010.0 |
| 20260506104503 | 59 | 180 | 2.0 | 6.0 | 0.00 | 0.01 | 0.00 | 86 | 1009.6 |
| 20260506104431 | 59 | 345 | 0.0 | 6.0 | 0.00 | 0.00 | 0.00 | 86 | 1008.1 |
| 20260506103603 | 58 | 169 | 1.0 | 5.0 | 0.00 | 0.01 | 0.00 | 86 | 1009.6 |
| 20260506102928 | 58 | 103 | 0.0 | 2.0 | 0.00 | 0.00 | 0.00 | 87 | 1008.1 |
| 20260506102703 | 58 | 116 | 1.0 | 4.0 | 0.00 | 0.01 | 0.00 | 87 | 1009.6 |
| 20260506101804 | 58 | 77 | 1.0 | 3.0 | 0.00 | 0.01 | 0.00 | 88 | 1009.3 |
| 20260506101425 | 57 | 90 | 0.0 | 3.0 | 0.00 | 0.00 | 0.00 | 88 | 1008.0 |
| 20260506100903 | 57 | 100 | 1.0 | 3.0 | 0.00 | 0.01 | 0.00 | 88 | 1009.6 |
| 20260506100003 | 57 | 77 | 1.0 | 5.0 | 0.00 | 0.01 | 0.00 | 89 | 1009.6 |
| 20260506095925 | 57 | 73 | 0.0 | 3.0 | 0.00 | 0.00 | 0.00 | 89 | 1007.9 |
| 20260506095403 | 56 | 54 | 1.0 | 5.0 | 0.00 | 0.01 | 0.00 | 89 | 1009.6 |
| 20260506094503 | 56 | 60 | 1.0 | 3.0 | 0.00 | 0.01 | 0.00 | 89 | 1009.6 |
| 20260506094424 | 56 | 54 | 0.0 | 2.0 | 0.00 | 0.00 | 0.00 | 89 | 1008.0 |
| 20260506093603 | 56 | 63 | 1.0 | 3.0 | 0.00 | 0.01 | 0.00 | 89 | 1009.3 |
| 20260506092922 | 56 | 83 | 0.0 | 3.0 | 0.00 | 0.00 | 0.00 | 89 | 1008.2 |
| 20260506092703 | 56 | 53 | 0.0 | 3.0 | 0.00 | 0.01 | 0.00 | 89 | 1009.6 |
| 20260506091803 | 56 | 49 | 1.0 | 3.0 | 0.00 | 0.01 | 0.00 | 89 | 1009.6 |
| 20260506091420 | 55 | 26 | 0.0 | 2.0 | 0.00 | 0.00 | 0.00 | 88 | 1008.0 |
| 20260506090903 | 56 | 23 | 1.0 | 4.0 | 0.00 | 0.01 | 0.00 | 88 | 1009.6 |
| 20260506090003 | 56 | 34 | 1.0 | 4.0 | 0.00 | 0.01 | 0.00 | 88 | 1009.6 |
| 20260506085917 | 56 | 23 | 0.0 | 2.0 | 0.00 | 0.00 | 0.00 | 88 | 1008.1 |
| 20260506085618 | 56 | 46 | 1.0 | 2.0 | 0.00 | 0.01 | 0.00 | 88 | 1009.3 |
| 20260506084503 | 56 | 44 | 1.0 | 3.0 | 0.00 | 0.01 | 0.00 | 88 | 1009.6 |
| 20260506084413 | 55 | 26 | 0.0 | 1.0 | 0.00 | 0.00 | 0.00 | 87 | 1008.1 |
| 20260506083603 | 56 | 38 | 1.0 | 4.0 | 0.00 | 0.01 | 0.00 | 87 | 1009.6 |
| 20260506082910 | 57 | 7 | 2.0 | 4.0 | 0.00 | 0.00 | 0.00 | 86 | 1008.5 |
| 20260506082703 | 57 | 43 | 1.0 | 4.0 | 0.00 | 0.01 | 0.00 | 86 | 1009.6 |
| 20260506081803 | 58 | 54 | 1.0 | 3.0 | 0.00 | 0.01 | 0.00 | 85 | 1009.6 |
| 20260506081407 | 58 | 15 | 0.0 | 2.0 | 0.00 | 0.00 | 0.00 | 84 | 1008.5 |
| 20260506081117 | 58 | 43 | 1.0 | 3.0 | 0.00 | 0.01 | 0.00 | 84 | 1009.6 |
| 20260506072859 | 60 | 194 | 1.0 | 3.0 | 0.00 | 0.00 | 0.00 | 81 | 1008.4 |
| 20260506072703 | 60 | 189 | 1.0 | 6.0 | 0.00 | 0.01 | 0.00 | 81 | 1010.0 |
| 20260506071803 | 60 | 181 | 1.0 | 6.0 | 0.00 | 0.01 | 0.00 | 80 | 1009.6 |
| 20260506071358 | 61 | 98 | 2.0 | 5.0 | 0.00 | 0.00 | 0.00 | 80 | 1008.5 |
| 20260506070903 | 61 | 213 | 3.0 | 6.0 | 0.00 | 0.01 | 0.00 | 79 | 1009.6 |
| 20260506061803 | 62 | 211 | 3.0 | 13.0 | 0.00 | 0.01 | 0.00 | 75 | 1009.6 |
| 20260506061344 | 62 | 225 | 3.0 | 13.0 | 0.00 | 0.00 | 0.00 | 75 | 1008.0 |
| 20260506060903 | 62 | 199 | 3.0 | 10.0 | 0.00 | 0.01 | 0.00 | 74 | 1009.6 |
| 20260506051336 | 64 | 211 | 3.0 | 5.0 | 0.00 | 0.00 | 0.00 | 72 | 1009.0 |
| 20260506050903 | 64 | 219 | 3.0 | 12.0 | 0.00 | 0.01 | 0.00 | 71 | 1010.3 |
| 20260506044503 | 65 | 207 | 4.0 | 13.0 | 0.00 | 0.01 | 0.00 | 69 | 1010.3 |
| 20260506044330 | 65 | 220 | 2.0 | 10.0 | 0.00 | 0.00 | 0.00 | 69 | 1008.8 |
| 20260506043603 | 65 | 208 | 4.0 | 16.0 | 0.00 | 0.01 | 0.00 | 69 | 1010.3 |
| 20260506042829 | 65 | 240 | 7.0 | 16.0 | 0.00 | 0.00 | 0.00 | 69 | 1008.8 |
| 20260506042703 | 65 | 206 | 4.0 | 16.0 | 0.00 | 0.01 | 0.00 | 68 | 1010.3 |
| 20260506042018 | 66 | 214 | 4.0 | 13.0 | 0.00 | 0.01 | 0.00 | 68 | 1010.3 |
| 20260506041328 | 66 | 216 | 0.0 | 9.0 | 0.00 | 0.00 | 0.00 | 68 | 1008.9 |
| 20260506040903 | 65 | 195 | 3.0 | 14.0 | 0.00 | 0.01 | 0.00 | 68 | 1010.3 |
| 20260506040008 | 66 | 209 | 3.0 | 9.0 | 0.00 | 0.01 | 0.00 | 68 | 1010.0 |
| 20260506035825 | 66 | 215 | 1.0 | 9.0 | 0.00 | 0.00 | 0.00 | 68 | 1008.7 |
| 20260506035618 | 66 | 211 | 4.0 | 13.0 | 0.00 | 0.01 | 0.01 | 68 | 1010.3 |
| 20260506034503 | 66 | 205 | 4.0 | 14.0 | 0.00 | 0.01 | 0.01 | 66 | 1010.3 |
| 20260506034322 | 66 | 202 | 2.0 | 8.0 | 0.00 | 0.00 | 0.00 | 67 | 1008.7 |
| 20260506033817 | 66 | 201 | 4.0 | 10.0 | 0.00 | 0.01 | 0.01 | 67 | 1010.0 |
| 20260506032819 | 66 | 227 | 0.0 | 8.0 | 0.00 | 0.00 | 0.00 | 67 | 1008.7 |
| 20260506032703 | 66 | 206 | 3.0 | 11.0 | 0.00 | 0.01 | 0.01 | 67 | 1010.3 |
| 20260506031803 | 66 | 205 | 3.0 | 14.0 | 0.00 | 0.01 | 0.01 | 66 | 1010.0 |
| 20260506031315 | 66 | 205 | 4.0 | 7.0 | 0.00 | 0.00 | 0.00 | 66 | 1008.8 |
| 20260506031117 | 66 | 209 | 3.0 | 14.0 | 0.00 | 0.01 | 0.01 | 66 | 1010.0 |
| 20260506030003 | 66 | 209 | 3.0 | 15.0 | 0.00 | 0.01 | 0.01 | 66 | 1010.3 |
| 20260506025813 | 66 | 259 | 3.0 | 6.0 | 0.00 | 0.00 | 0.00 | 66 | 1008.7 |
| 20260506025403 | 66 | 205 | 2.0 | 15.0 | 0.00 | 0.01 | 0.01 | 65 | 1010.3 |
| 20260506024503 | 65 | 186 | 2.0 | 6.0 | 0.00 | 0.01 | 0.01 | 67 | 1010.3 |
| 20260506024309 | 65 | 198 | 0.0 | 3.0 | 0.00 | 0.00 | 0.00 | 67 | 1008.8 |
| 20260506023603 | 65 | 192 | 2.0 | 5.0 | 0.00 | 0.01 | 0.01 | 67 | 1010.0 |
| 20260506022805 | 65 | 206 | 0.0 | 3.0 | 0.00 | 0.00 | 0.00 | 67 | 1008.8 |
| 20260506022703 | 65 | 162 | 1.0 | 6.0 | 0.00 | 0.01 | 0.01 | 67 | 1010.0 |
| 20260506021803 | 65 | 170 | 1.0 | 4.0 | 0.00 | 0.01 | 0.01 | 66 | 1010.3 |
| 20260506021303 | 66 | 71 | 1.0 | 4.0 | 0.00 | 0.00 | 0.00 | 65 | 1009.1 |
| 20260506020903 | 66 | 167 | 1.0 | 3.0 | 0.00 | 0.01 | 0.01 | 65 | 1010.0 |
| 20260506020003 | 66 | 180 | 1.0 | 7.0 | 0.00 | 0.01 | 0.01 | 65 | 1010.3 |
| 20260506015801 | 67 | 195 | 0.0 | 4.0 | 0.00 | 0.00 | 0.00 | 64 | 1008.8 |
| 20260506015403 | 66 | 193 | 1.0 | 3.0 | 0.00 | 0.01 | 0.01 | 65 | 1010.3 |
| 20260506014503 | 66 | 175 | 2.0 | 8.0 | 0.00 | 0.01 | 0.01 | 65 | 1010.0 |
| 20260506014257 | 66 | 135 | 2.0 | 5.0 | 0.00 | 0.00 | 0.00 | 63 | 1008.6 |
| 20260506013603 | 67 | 173 | 1.0 | 7.0 | 0.00 | 0.01 | 0.01 | 63 | 1010.0 |
| 20260506012753 | 67 | 194 | 0.0 | 2.0 | 0.00 | 0.00 | 0.00 | 63 | 1008.1 |
| 20260506012703 | 67 | 235 | 0.0 | 2.0 | 0.00 | 0.01 | 0.01 | 62 | 1009.6 |
| 20260506011803 | 67 | 205 | 1.0 | 3.0 | 0.00 | 0.01 | 0.01 | 62 | 1009.6 |
| 20260506011249 | 67 | 270 | 0.0 | 1.0 | 0.00 | 0.00 | 0.00 | 62 | 1007.8 |
| 20260506011118 | 68 | 214 | 1.0 | 4.0 | 0.00 | 0.01 | 0.01 | 62 | 1009.6 |
| 20260506010003 | 68 | 219 | 1.0 | 6.0 | 0.00 | 0.01 | 0.01 | 63 | 1009.3 |
| 20260506005748 | 67 | 180 | 3.0 | 3.0 | 0.00 | 0.00 | 0.00 | 63 | 1007.9 |
| 20260506005403 | 67 | 220 | 1.0 | 4.0 | 0.00 | 0.01 | 0.01 | 63 | 1009.3 |
| 20260506004504 | 67 | 233 | 1.0 | 4.0 | 0.00 | 0.01 | 0.01 | 62 | 1009.3 |
| 20260506004244 | 67 | 241 | 2.0 | 3.0 | 0.00 | 0.00 | 0.00 | 64 | 1007.9 |
| 20260506003818 | 67 | 219 | 1.0 | 4.0 | 0.00 | 0.01 | 0.01 | 63 | 1009.3 |
| 20260506002917 | 67 | 202 | 1.0 | 4.0 | 0.00 | 0.01 | 0.01 | 64 | 1009.3 |
| 20260506002744 | 67 | 249 | 0.0 | 3.0 | 0.00 | 0.00 | 0.00 | 63 | 1007.6 |
| 20260506002018 | 67 | 209 | 1.0 | 2.0 | 0.00 | 0.01 | 0.01 | 64 | 1008.9 |
| 20260506001240 | 68 | 99 | 0.0 | 2.0 | 0.00 | 0.00 | 0.00 | 63 | 1007.5 |
| 20260506000903 | 67 | 177 | 1.0 | 5.0 | 0.00 | 0.01 | 0.01 | 63 | 1008.9 |
| 20260506000003 | 68 | 197 | 1.0 | 4.0 | 0.00 | 0.01 | 0.01 | 63 | 1008.9 |
| 20260505235737 | 67 | 243 | 2.0 | 3.0 | 0.00 | 0.00 | 0.00 | 64 | 1007.5 |
| 20260505235403 | 68 | 154 | 1.0 | 4.0 | 0.00 | 0.01 | 0.01 | 63 | 1008.9 |
| 20260505234503 | 68 | 147 | 1.0 | 7.0 | 0.00 | 0.01 | 0.01 | 62 | 1008.6 |
| 20260505234235 | 69 | 237 | 2.0 | 7.0 | 0.00 | 0.00 | 0.00 | 61 | 1007.1 |
| 20260505233603 | 69 | 153 | 1.0 | 6.0 | 0.00 | 0.01 | 0.01 | 61 | 1008.6 |
| 20260505232732 | 69 | 159 | 2.0 | 4.0 | 0.00 | 0.00 | 0.00 | 60 | 1006.9 |
| 20260505232703 | 69 | 147 | 2.0 | 6.0 | 0.00 | 0.01 | 0.01 | 60 | 1008.2 |
| 20260505231803 | 70 | 157 | 2.0 | 8.0 | 0.00 | 0.01 | 0.01 | 59 | 1008.6 |
| 20260505231231 | 70 | 194 | 1.0 | 8.0 | 0.00 | 0.00 | 0.00 | 59 | 1006.7 |
| 20260505230903 | 70 | 144 | 2.0 | 8.0 | 0.00 | 0.01 | 0.01 | 59 | 1008.2 |
| 20260505230003 | 70 | 150 | 2.0 | 7.0 | 0.00 | 0.01 | 0.01 | 59 | 1007.9 |
| 20260505225727 | 71 | 172 | 3.0 | 5.0 | 0.00 | 0.00 | 0.00 | 59 | 1006.5 |
| 20260505225403 | 71 | 150 | 2.0 | 7.0 | 0.00 | 0.01 | 0.01 | 58 | 1008.2 |
| 20260505224503 | 71 | 128 | 3.0 | 9.0 | 0.00 | 0.01 | 0.01 | 57 | 1007.9 |
| 20260505224223 | 72 | 210 | 2.0 | 7.0 | 0.00 | 0.00 | 0.00 | 58 | 1006.6 |
| 20260505223603 | 72 | 101 | 2.0 | 8.0 | 0.00 | 0.01 | 0.01 | 57 | 1007.9 |
| 20260505222918 | 72 | 102 | 2.0 | 6.0 | 0.00 | 0.01 | 0.01 | 57 | 1007.9 |
| 20260505222719 | 73 | 180 | 1.0 | 5.0 | 0.00 | 0.00 | 0.00 | 56 | 1006.3 |
| 20260505221803 | 73 | 111 | 2.0 | 8.0 | 0.00 | 0.01 | 0.01 | 55 | 1007.9 |
| 20260505221215 | 74 | 119 | 2.0 | 4.0 | 0.00 | 0.00 | 0.00 | 54 | 1006.3 |
| 20260505220903 | 74 | 102 | 2.0 | 7.0 | 0.00 | 0.01 | 0.01 | 54 | 1007.9 |
| 20260505220003 | 74 | 133 | 2.0 | 11.0 | 0.00 | 0.01 | 0.01 | 54 | 1007.9 |
| 20260505215713 | 75 | 201 | 0.0 | 4.0 | 0.00 | 0.00 | 0.00 | 54 | 1006.3 |
| 20260505215618 | 74 | 148 | 2.0 | 11.0 | 0.00 | 0.01 | 0.01 | 53 | 1007.9 |
| 20260505214503 | 76 | 145 | 2.0 | 8.0 | 0.00 | 0.01 | 0.01 | 50 | 1007.9 |
| 20260505214212 | 77 | 186 | 1.0 | 5.0 | 0.00 | 0.00 | 0.00 | 51 | 1006.4 |
| 20260505213816 | 76 | 186 | 2.0 | 8.0 | 0.00 | 0.01 | 0.01 | 50 | 1007.9 |
| 20260505212708 | 77 | 124 | 0.0 | 6.0 | 0.00 | 0.00 | 0.00 | 50 | 1006.1 |
| 20260505212703 | 76 | 145 | 3.0 | 10.0 | 0.00 | 0.01 | 0.01 | 50 | 1007.9 |
| 20260505211803 | 76 | 147 | 3.0 | 15.0 | 0.00 | 0.01 | 0.01 | 50 | 1007.5 |
| 20260505211205 | 78 | 257 | 1.0 | 10.0 | 0.00 | 0.00 | 0.00 | 49 | 1006.0 |
| 20260505211116 | 77 | 132 | 3.0 | 11.0 | 0.00 | 0.01 | 0.01 | 49 | 1007.2 |
| 20260505210218 | 78 | 155 | 3.0 | 10.0 | 0.00 | 0.01 | 0.01 | 48 | 1007.2 |
| 20260505205702 | 78 | 180 | 1.0 | 5.0 | 0.00 | 0.00 | 0.00 | 48 | 1005.9 |
| 20260505205403 | 77 | 138 | 3.0 | 11.0 | 0.00 | 0.01 | 0.01 | 48 | 1007.2 |
| 20260505204503 | 78 | 135 | 3.0 | 10.0 | 0.00 | 0.01 | 0.01 | 45 | 1007.2 |
| 20260505204200 | 79 | 248 | 5.0 | 7.0 | 0.00 | 0.00 | 0.00 | 47 | 1006.0 |
| 20260505203603 | 78 | 184 | 3.0 | 12.0 | 0.00 | 0.01 | 0.01 | 46 | 1007.5 |
| 20260505202917 | 78 | 210 | 3.0 | 12.0 | 0.00 | 0.01 | 0.01 | 47 | 1007.5 |
| 20260505202655 | 78 | 233 | 3.0 | 8.0 | 0.00 | 0.00 | 0.00 | 47 | 1006.1 |
| 20260505201803 | 78 | 199 | 3.0 | 14.0 | 0.00 | 0.01 | 0.01 | 45 | 1007.5 |
| 20260505201152 | 79 | 222 | 0.0 | 3.0 | 0.00 | 0.00 | 0.00 | 44 | 1006.3 |
| 20260505201118 | 78 | 217 | 3.0 | 13.0 | 0.00 | 0.01 | 0.01 | 44 | 1007.5 |
| 20260505200003 | 78 | 206 | 5.0 | 16.0 | 0.00 | 0.01 | 0.01 | 44 | 1007.9 |
| 20260505195648 | 79 | 220 | 7.0 | 15.0 | 0.00 | 0.00 | 0.00 | 45 | 1006.2 |
| 20260505195617 | 78 | 207 | 5.0 | 15.0 | 0.00 | 0.01 | 0.01 | 45 | 1007.9 |
| 20260505194718 | 78 | 199 | 5.0 | 15.0 | 0.00 | 0.01 | 0.01 | 45 | 1007.5 |
| 20260505194145 | 81 | 174 | 7.0 | 12.0 | 0.00 | 0.00 | 0.00 | 43 | 1006.3 |
| 20260505193818 | 80 | 212 | 4.0 | 13.0 | 0.00 | 0.01 | 0.01 | 44 | 1007.5 |
| 20260505192703 | 80 | 214 | 3.0 | 14.0 | 0.00 | 0.01 | 0.01 | 45 | 1007.9 |
| 20260505192643 | 80 | 199 | 2.0 | 11.0 | 0.00 | 0.00 | 0.00 | 44 | 1006.3 |
| 20260505191803 | 78 | 190 | 5.0 | 16.0 | 0.00 | 0.01 | 0.01 | 45 | 1007.9 |
| 20260505191142 | 80 | 208 | 5.0 | 16.0 | 0.00 | 0.00 | 0.00 | 44 | 1006.4 |
| 20260505190903 | 80 | 198 | 3.0 | 12.0 | 0.00 | 0.01 | 0.01 | 44 | 1007.9 |
| 20260505190003 | 79 | 227 | 5.0 | 15.0 | 0.00 | 0.01 | 0.01 | 46 | 1007.9 |
| 20260505185640 | 80 | 264 | 3.0 | 12.0 | 0.00 | 0.00 | 0.00 | 47 | 1006.8 |
| 20260505185403 | 78 | 208 | 5.0 | 15.0 | 0.00 | 0.01 | 0.01 | 45 | 1008.2 |
| 20260505184503 | 78 | 218 | 6.0 | 19.0 | 0.00 | 0.01 | 0.01 | 44 | 1008.2 |
| 20260505184136 | 79 | 224 | 10.0 | 16.0 | 0.00 | 0.00 | 0.00 | 45 | 1006.8 |
| 20260505183603 | 77 | 205 | 4.0 | 13.0 | 0.00 | 0.01 | 0.01 | 45 | 1008.2 |
| 20260505182703 | 78 | 211 | 5.0 | 23.0 | 0.00 | 0.01 | 0.01 | 45 | 1008.2 |
| 20260505182632 | 79 | 217 | 3.0 | 5.0 | 0.00 | 0.00 | 0.00 | 44 | 1006.8 |
| 20260505181804 | 78 | 218 | 5.0 | 14.0 | 0.00 | 0.01 | 0.01 | 43 | 1008.2 |
| 20260505181129 | 79 | 191 | 2.0 | 11.0 | 0.00 | 0.00 | 0.00 | 44 | 1006.9 |
| 20260505180903 | 79 | 217 | 4.0 | 19.0 | 0.00 | 0.01 | 0.01 | 43 | 1008.6 |
| 20260505180003 | 78 | 210 | 5.0 | 19.0 | 0.00 | 0.01 | 0.01 | 43 | 1008.6 |
| 20260505175624 | 79 | 188 | 4.0 | 12.0 | 0.00 | 0.00 | 0.00 | 43 | 1006.7 |
| 20260505175618 | 78 | 198 | 5.0 | 17.0 | 0.00 | 0.01 | 0.01 | 43 | 1008.2 |
| 20260505174503 | 79 | 198 | 3.0 | 11.0 | 0.00 | 0.01 | 0.01 | 42 | 1008.6 |
| 20260505174120 | 79 | 125 | 5.0 | 10.0 | 0.00 | 0.00 | 0.00 | 44 | 1007.1 |
| 20260505173603 | 78 | 210 | 5.0 | 18.0 | 0.00 | 0.01 | 0.01 | 44 | 1008.6 |
| 20260505172703 | 78 | 201 | 3.0 | 16.0 | 0.00 | 0.01 | 0.01 | 43 | 1008.6 |
| 20260505172617 | 79 | 235 | 2.0 | 6.0 | 0.00 | 0.00 | 0.00 | 43 | 1007.3 |
| 20260505171803 | 77 | 213 | 4.0 | 13.0 | 0.00 | 0.01 | 0.01 | 45 | 1008.9 |
| 20260505171117 | 78 | 220 | 5.0 | 11.0 | 0.00 | 0.00 | 0.00 | 45 | 1007.3 |
| 20260505170903 | 78 | 199 | 4.0 | 16.0 | 0.00 | 0.01 | 0.01 | 45 | 1008.9 |
| 20260505170003 | 76 | 214 | 4.0 | 16.0 | 0.00 | 0.01 | 0.01 | 46 | 1009.3 |
| 20260505165617 | 79 | 208 | 4.0 | 8.0 | 0.00 | 0.00 | 0.00 | 46 | 1007.9 |
| 20260505165403 | 77 | 202 | 4.0 | 13.0 | 0.00 | 0.01 | 0.01 | 46 | 1009.3 |
| 20260505164503 | 76 | 191 | 3.0 | 11.0 | 0.00 | 0.01 | 0.01 | 47 | 1009.6 |
| 20260505164113 | 77 | 225 | 0.0 | 11.0 | 0.00 | 0.00 | 0.00 | 47 | 1008.1 |
| 20260505163603 | 75 | 187 | 4.0 | 15.0 | 0.00 | 0.01 | 0.01 | 48 | 1009.6 |
| 20260505162703 | 75 | 206 | 4.0 | 13.0 | 0.00 | 0.01 | 0.01 | 48 | 1010.0 |
| 20260505162611 | 77 | 152 | 6.0 | 13.0 | 0.00 | 0.00 | 0.00 | 48 | 1008.4 |
| 20260505161803 | 74 | 220 | 4.0 | 11.0 | 0.00 | 0.01 | 0.01 | 50 | 1010.0 |
| 20260505161117 | 74 | 215 | 4.0 | 15.0 | 0.00 | 0.01 | 0.01 | 50 | 1010.3 |
| 20260505161109 | 75 | 279 | 2.0 | 9.0 | 0.00 | 0.00 | 0.00 | 49 | 1008.4 |
| 20260505160218 | 74 | 213 | 4.0 | 14.0 | 0.00 | 0.01 | 0.01 | 51 | 1010.0 |
| 20260505152703 | 73 | 192 | 3.0 | 8.0 | 0.00 | 0.01 | 0.01 | 52 | 1010.3 |
| 20260505152602 | 75 | 183 | 3.0 | 9.0 | 0.00 | 0.00 | 0.00 | 53 | 1008.7 |
| 20260505151803 | 72 | 204 | 4.0 | 12.0 | 0.00 | 0.01 | 0.01 | 54 | 1010.3 |
| 20260505151057 | 73 | 228 | 2.0 | 12.0 | 0.00 | 0.00 | 0.00 | 56 | 1008.9 |
| 20260505150903 | 72 | 200 | 4.0 | 11.0 | 0.00 | 0.01 | 0.01 | 54 | 1010.3 |